QPF
0.00 0.00 0.00 0.00 0.00 0.00 0.01 0.01 0.01 0.01 0.01 0.00 0.01 0.01 0.02 0.03 0.02 0.02 0.01 0.01 0.01 0.01 0.02 0.04 0.04 0.03 0.04 0.04 0.03 0.02 0.02 0.01 0.01 0.01 0.01 0.01 0.01 0.01 0.02 0.02 0.01 0.01 0.01 0.01
0.00 0.00 0.00 0.00 0.00 0.01 0.01 0.01 0.01 0.01 0.01 0.01 0.01 0.01 0.02 0.03 0.02 0.01 0.01 0.01 0.01 0.00 0.00 0.01 0.02 0.02 0.03 0.03 0.03 0.03 0.02 0.02 0.01 0.01 0.01 0.01 0.01 0.01 0.02 0.02 0.02 0.02 0.01 0.00
0.00 0.00 0.00 0.00 0.01 0.01 0.01 0.01 0.01 0.01 0.01 0.01 0.01 0.01 0.01 0.02 0.01 0.01 0.01 0.02 0.01 0.01 0.01 0.01 0.01 0.01 0.03 0.04 0.04 0.03 0.02 0.02 0.02 0.01 0.01 0.01 0.02 0.02 0.02 0.02 0.02 0.03 0.01 0.00
0.00 0.00 0.00 0.01 0.01 0.01 0.01 0.01 0.01 0.01 0.02 0.01 0.02 0.02 0.02 0.01 0.01 0.02 0.03 0.03 0.02 0.02 0.02 0.01 0.01 0.01 0.02 0.04 0.05 0.05 0.03 0.02 0.02 0.02 0.01 0.01 0.00 0.01 0.01 0.01 0.02 0.02 0.01 0.01
0.00 0.00 0.00 0.01 0.01 0.01 0.01 0.01 0.02 0.02 0.02 0.01 0.02 0.02 0.02 0.01 0.02 0.03 0.03 0.02 0.02 0.02 0.02 0.02 0.02 0.02 0.02 0.03 0.04 0.06 0.04 0.03 0.02 0.02 0.02 0.01 0.00 0.00 0.01 0.01 0.01 0.02 0.01 0.01
0.00 0.00 0.00 0.00 0.01 0.01 0.02 0.03 0.03 0.02 0.02 0.01 0.01 0.01 0.01 0.01 0.02 0.03 0.04 0.03 0.02 0.02 0.02 0.02 0.02 0.03 0.02 0.03 0.04 0.05 0.06 0.04 0.03 0.02 0.02 0.01 0.01 0.01 0.01 0.00 0.01 0.01 0.01 0.01
0.00 0.00 0.00 0.00 0.01 0.01 0.02 0.03 0.03 0.02 0.02 0.01 0.01 0.00 0.01 0.01 0.01 0.01 0.02 0.03 0.02 0.03 0.02 0.02 0.02 0.02 0.02 0.02 0.04 0.05 0.07 0.07 0.05 0.03 0.02 0.02 0.01 0.01 0.01 0.01 0.01 0.01 0.01 0.01
0.00 0.00 0.00 0.00 0.01 0.01 0.01 0.02 0.03 0.02 0.01 0.01 0.00 0.01 0.02 0.01 0.01 0.01 0.01 0.01 0.01 0.02 0.01 0.01 0.01 0.01 0.02 0.02 0.03 0.04 0.06 0.08 0.07 0.05 0.03 0.02 0.02 0.02 0.02 0.02 0.02 0.01 0.01 0.01
0.00 0.00 0.00 0.00 0.00 0.01 0.01 0.02 0.02 0.02 0.01 0.01 0.00 0.00 0.01 0.01 0.00 0.00 0.00 0.01 0.02 0.01 0.00 0.00 0.00 0.01 0.01 0.02 0.03 0.04 0.04 0.05 0.06 0.06 0.05 0.03 0.02 0.02 0.01 0.02 0.02 0.01 0.01 0.01
0.00 0.00 0.00 0.00 0.00 0.01 0.01 0.02 0.02 0.02 0.02 0.01 0.00 0.00 0.00 0.00 0.00 0.00 0.00 0.01 0.02 0.01 0.00 0.00 0.00 0.00 0.01 0.01 0.02 0.03 0.04 0.04 0.04 0.04 0.05 0.05 0.04 0.04 0.03 0.02 0.01 0.01 0.01 0.01
0.00 0.00 0.00 0.01 0.01 0.01 0.01 0.02 0.03 0.02 0.02 0.01 0.00 0.00 0.00 0.00 0.00 0.00 0.00 0.01 0.01 0.01 0.01 0.00 0.00 0.00 0.00 0.01 0.02 0.02 0.03 0.04 0.04 0.03 0.03 0.04 0.03 0.04 0.04 0.03 0.02 0.01 0.01 0.01
0.00 0.00 0.00 0.00 0.00 0.01 0.01 0.01 0.02 0.03 0.02 0.01 0.01 0.00 0.00 0.00 0.00 0.00 0.01 0.00 0.01 0.01 0.01 0.00 0.00 0.00 0.00 0.01 0.01 0.00 0.01 0.02 0.03 0.03 0.03 0.02 0.02 0.03 0.03 0.03 0.02 0.02 0.02 0.02
0.01 0.01 0.01 0.01 0.01 0.01 0.01 0.01 0.01 0.02 0.02 0.02 0.01 0.00 0.00 0.00 0.00 0.00 0.01 0.00 0.01 0.01 0.01 0.01 0.01 0.00 0.00 0.01 0.01 0.00 0.00 0.01 0.02 0.02 0.03 0.03 0.04 0.04 0.03 0.04 0.04 0.04 0.03 0.03
0.01 0.01 0.00 0.00 0.00 0.00 0.00 0.01 0.01 0.01 0.02 0.02 0.02 0.01 0.00 0.00 0.00 0.00 0.01 0.01 0.00 0.01 0.01 0.01 0.00 0.00 0.01 0.01 0.01 0.00 0.00 0.01 0.01 0.01 0.02 0.03 0.03 0.05 0.05 0.05 0.06 0.06 0.06 0.06
0.01 0.01 0.01 0.01 0.01 0.01 0.01 0.01 0.01 0.01 0.01 0.02 0.03 0.02 0.01 0.00 0.00 0.00 0.00 0.01 0.01 0.00 0.01 0.01 0.00 0.00 0.01 0.01 0.00 0.00 0.00 0.01 0.00 0.01 0.01 0.02 0.02 0.03 0.05 0.07 0.08 0.09 0.09 0.09
0.01 0.01 0.01 0.02 0.01 0.01 0.01 0.01 0.01 0.01 0.01 0.02 0.02 0.02 0.01 0.00 0.00 0.00 0.00 0.01 0.01 0.01 0.01 0.01 0.01 0.00 0.01 0.01 0.01 0.00 0.00 0.01 0.00 0.01 0.01 0.02 0.02 0.03 0.04 0.06 0.08 0.11 0.13 0.15
0.00 0.01 0.01 0.01 0.02 0.02 0.03 0.02 0.01 0.01 0.02 0.03 0.03 0.02 0.01 0.01 0.01 0.01 0.00 0.01 0.01 0.01 0.01 0.01 0.01 0.01 0.01 0.01 0.01 0.01 0.00 0.00 0.00 0.01 0.02 0.02 0.03 0.04 0.04 0.04 0.05 0.07 0.08 0.10
0.00 0.00 0.00 0.01 0.01 0.02 0.03 0.02 0.01 0.01 0.02 0.03 0.03 0.02 0.01 0.01 0.01 0.01 0.01 0.00 0.01 0.01 0.00 0.00 0.01 0.01 0.02 0.01 0.01 0.01 0.01 0.01 0.01 0.01 0.01 0.01 0.02 0.03 0.04 0.04 0.04 0.05 0.06 0.06
0.00 0.00 0.00 0.00 0.01 0.02 0.02 0.02 0.02 0.01 0.02 0.02 0.02 0.02 0.02 0.02 0.01 0.01 0.01 0.01 0.01 0.01 0.00 0.00 0.01 0.01 0.02 0.02 0.02 0.01 0.02 0.02 0.02 0.02 0.02 0.02 0.02 0.03 0.03 0.03 0.03 0.04 0.04 0.04
0.00 0.00 0.00 0.01 0.01 0.01 0.02 0.02 0.02 0.01 0.03 0.02 0.02 0.02 0.02 0.02 0.02 0.02 0.01 0.02 0.02 0.02 0.01 0.01 0.02 0.02 0.01 0.01 0.01 0.01 0.02 0.02 0.02 0.02 0.02 0.02 0.03 0.04 0.04 0.04 0.03 0.02 0.02 0.02
0.00 0.00 0.00 0.00 0.00 0.01 0.01 0.01 0.01 0.02 0.03 0.01 0.01 0.02 0.03 0.03 0.03 0.02 0.02 0.02 0.03 0.03 0.02 0.02 0.03 0.03 0.01 0.01 0.01 0.01 0.01 0.01 0.01 0.02 0.02 0.02 0.02 0.03 0.03 0.04 0.03 0.02 0.01 0.01
0.00 0.00 0.00 0.00 0.01 0.01 0.00 0.00 0.01 0.01 0.01 0.01 0.01 0.01 0.02 0.02 0.02 0.02 0.02 0.02 0.04 0.04 0.03 0.04 0.03 0.03 0.01 0.01 0.01 0.00 0.00 0.00 0.00 0.00 0.00 0.01 0.01 0.01 0.02 0.03 0.03 0.04 0.03 0.03
0.00 0.00 0.01 0.01 0.01 0.01 0.00 0.00 0.00 0.00 0.00 0.01 0.01 0.01 0.01 0.02 0.02 0.03 0.03 0.03 0.04 0.04 0.04 0.05 0.05 0.04 0.02 0.01 0.01 0.01 0.00 0.00 0.00 0.00 0.00 0.00 0.01 0.01 0.01 0.02 0.02 0.03 0.03 0.04
0.01 0.00 0.00 0.00 0.00 0.00 0.00 0.00 0.00 0.00 0.00 0.00 0.00 0.01 0.00 0.01 0.02 0.02 0.02 0.02 0.02 0.02 0.03 0.04 0.05 0.05 0.03 0.02 0.02 0.01 0.01 0.00 0.00 0.00 0.00 0.00 0.00 0.01 0.01 0.01 0.02 0.03 0.03 0.04
0.01 0.00 0.00 0.00 0.00 0.00 0.00 0.00 0.00 0.00 0.00 0.00 0.00 0.00 0.00 0.00 0.00 0.01 0.01 0.01 0.01 0.01 0.01 0.01 0.03 0.05 0.04 0.03 0.03 0.02 0.02 0.01 0.00 0.00 0.00 0.00 0.00 0.00 0.01 0.01 0.01 0.02 0.02 0.03
0.00 0.00 0.00 0.00 0.00 0.00 0.00 0.00 0.00 0.00 0.00 0.00 0.00 0.00 0.00 0.00 0.00 0.00 0.01 0.00 0.00 0.00 0.00 0.00 0.01 0.02 0.03 0.02 0.02 0.02 0.02 0.01 0.01 0.01 0.01 0.01 0.01 0.01 0.01 0.01 0.01 0.02 0.02 0.03
MSLP
1012.84 1013.65 1014.31 1014.78 1015.08 1015.24 1015.29 1015.25 1015.16 1015.00 1014.77 1014.47 1014.08 1013.61 1013.07 1012.49 1011.91 1011.36 1010.87 1010.46 1010.14 1009.90 1009.74 1009.64 1009.61 1009.63 1009.72 1009.89 1010.13 1010.46 1010.85 1011.29 1011.74 1012.17 1012.55 1012.87 1013.11 1013.29 1013.42 1013.53 1013.66 1013.83 1014.06 1014.36
1013.36 1014.06 1014.59 1014.96 1015.18 1015.32 1015.39 1015.42 1015.43 1015.39 1015.26 1015.03 1014.68 1014.18 1013.57 1012.87 1012.14 1011.43 1010.78 1010.22 1009.76 1009.41 1009.15 1008.97 1008.87 1008.84 1008.90 1009.05 1009.32 1009.69 1010.15 1010.68 1011.24 1011.78 1012.26 1012.65 1012.94 1013.14 1013.26 1013.35 1013.45 1013.58 1013.79 1014.08
1013.57 1014.14 1014.54 1014.79 1014.96 1015.08 1015.20 1015.34 1015.48 1015.57 1015.58 1015.44 1015.14 1014.65 1013.99 1013.20 1012.36 1011.52 1010.73 1010.04 1009.46 1009.00 1008.64 1008.37 1008.19 1008.09 1008.09 1008.21 1008.46 1008.84 1009.34 1009.93 1010.58 1011.21 1011.79 1012.27 1012.63 1012.88 1013.03 1013.13 1013.22 1013.35 1013.55 1013.84
1013.51 1013.91 1014.16 1014.32 1014.43 1014.58 1014.78 1015.04 1015.34 1015.60 1015.75 1015.73 1015.50 1015.04 1014.36 1013.52 1012.60 1011.67 1010.78 1009.99 1009.32 1008.76 1008.31 1007.96 1007.69 1007.50 1007.42 1007.46 1007.65 1007.99 1008.48 1009.09 1009.77 1010.47 1011.12 1011.68 1012.12 1012.44 1012.65 1012.80 1012.92 1013.08 1013.29 1013.58
1013.23 1013.46 1013.57 1013.64 1013.73 1013.92 1014.23 1014.64 1015.10 1015.54 1015.85 1015.96 1015.81 1015.39 1014.73 1013.86 1012.90 1011.91 1010.96 1010.11 1009.38 1008.76 1008.25 1007.82 1007.46 1007.18 1006.99 1006.92 1007.00 1007.25 1007.67 1008.23 1008.89 1009.60 1010.28 1010.89 1011.40 1011.79 1012.07 1012.29 1012.48 1012.69 1012.94 1013.26
1012.87 1012.92 1012.91 1012.90 1013.00 1013.25 1013.68 1014.24 1014.88 1015.48 1015.94 1016.17 1016.11 1015.74 1015.09 1014.23 1013.25 1012.24 1011.28 1010.41 1009.65 1009.01 1008.46 1007.98 1007.55 1007.17 1006.87 1006.67 1006.61 1006.72 1007.01 1007.47 1008.04 1008.68 1009.34 1009.96 1010.50 1010.95 1011.30 1011.60 1011.87 1012.15 1012.47 1012.84
1012.54 1012.43 1012.32 1012.28 1012.39 1012.72 1013.26 1013.96 1014.75 1015.49 1016.07 1016.39 1016.40 1016.07 1015.44 1014.60 1013.63 1012.63 1011.68 1010.83 1010.10 1009.47 1008.92 1008.42 1007.94 1007.49 1007.08 1006.75 1006.54 1006.48 1006.60 1006.89 1007.32 1007.85 1008.42 1008.99 1009.51 1009.97 1010.38 1010.74 1011.08 1011.44 1011.84 1012.27
1012.31 1012.10 1011.92 1011.87 1012.02 1012.42 1013.05 1013.86 1014.75 1015.58 1016.23 1016.60 1016.63 1016.33 1015.73 1014.90 1013.96 1013.00 1012.10 1011.31 1010.63 1010.05 1009.54 1009.06 1008.57 1008.08 1007.59 1007.15 1006.80 1006.57 1006.50 1006.60 1006.84 1007.19 1007.62 1008.08 1008.53 1008.96 1009.37 1009.76 1010.16 1010.58 1011.04 1011.55
1012.25 1011.98 1011.78 1011.74 1011.93 1012.39 1013.08 1013.95 1014.87 1015.72 1016.38 1016.74 1016.77 1016.46 1015.87 1015.07 1014.17 1013.27 1012.45 1011.74 1011.16 1010.66 1010.23 1009.80 1009.34 1008.84 1008.32 1007.80 1007.34 1006.96 1006.71 1006.61 1006.65 1006.80 1007.04 1007.34 1007.67 1008.01 1008.36 1008.73 1009.14 1009.60 1010.12 1010.68
1012.33 1012.07 1011.89 1011.89 1012.12 1012.61 1013.32 1014.18 1015.07 1015.86 1016.46 1016.76 1016.74 1016.41 1015.82 1015.05 1014.21 1013.40 1012.67 1012.07 1011.60 1011.21 1010.87 1010.52 1010.13 1009.67 1009.16 1008.61 1008.07 1007.58 1007.19 1006.91 1006.75 1006.70 1006.74 1006.84 1007.00 1007.20 1007.45 1007.75 1008.12 1008.57 1009.10 1009.70
1012.53 1012.33 1012.22 1012.28 1012.54 1013.03 1013.69 1014.47 1015.25 1015.93 1016.40 1016.60 1016.51 1016.14 1015.55 1014.83 1014.07 1013.36 1012.75 1012.27 1011.92 1011.65 1011.41 1011.16 1010.85 1010.45 1009.97 1009.44 1008.87 1008.33 1007.84 1007.43 1007.10 1006.86 1006.69 1006.60 1006.56 1006.58 1006.68 1006.86 1007.15 1007.55 1008.05 1008.65
1012.81 1012.72 1012.70 1012.82 1013.09 1013.53 1014.11 1014.74 1015.36 1015.86 1016.17 1016.24 1016.06 1015.66 1015.10 1014.44 1013.79 1013.20 1012.72 1012.37 1012.13 1011.97 1011.84 1011.67 1011.43 1011.10 1010.67 1010.18 1009.63 1009.07 1008.53 1008.03 1007.58 1007.19 1006.84 1006.55 1006.32 1006.15 1006.07 1006.10 1006.27 1006.57 1007.01 1007.57
1013.12 1013.17 1013.25 1013.42 1013.68 1014.04 1014.48 1014.93 1015.33 1015.63 1015.76 1015.70 1015.45 1015.04 1014.53 1013.97 1013.44 1013.00 1012.66 1012.43 1012.29 1012.22 1012.14 1012.03 1011.85 1011.57 1011.20 1010.75 1010.24 1009.70 1009.15 1008.61 1008.08 1007.57 1007.08 1006.62 1006.20 1005.85 1005.59 1005.46 1005.47 1005.66 1006.00 1006.50
1013.45 1013.63 1013.81 1014.00 1014.23 1014.48 1014.75 1014.99 1015.16 1015.24 1015.20 1015.03 1014.73 1014.35 1013.92 1013.49 1013.12 1012.82 1012.62 1012.50 1012.45 1012.42 1012.38 1012.28 1012.11 1011.86 1011.52 1011.10 1010.64 1010.13 1009.60 1009.05 1008.48 1007.90 1007.31 1006.71 1006.14 1005.62 1005.19 1004.89 1004.75 1004.80 1005.04 1005.45
1013.78 1014.08 1014.32 1014.52 1014.68 1014.80 1014.87 1014.89 1014.85 1014.73 1014.54 1014.28 1013.97 1013.65 1013.33 1013.06 1012.85 1012.71 1012.64 1012.62 1012.62 1012.61 1012.56 1012.44 1012.24 1011.97 1011.64 1011.24 1010.81 1010.34 1009.83 1009.29 1008.72 1008.09 1007.43 1006.73 1006.04 1005.37 1004.79 1004.34 1004.06 1003.98 1004.10 1004.42
1014.11 1014.48 1014.74 1014.91 1014.97 1014.94 1014.83 1014.64 1014.40 1014.12 1013.81 1013.50 1013.22 1012.98 1012.81 1012.70 1012.67 1012.68 1012.73 1012.78 1012.81 1012.78 1012.69 1012.52 1012.27 1011.95 1011.59 1011.19 1010.77 1010.32 1009.85 1009.33 1008.76 1008.11 1007.40 1006.64 1005.84 1005.07 1004.36 1003.78 1003.37 1003.17 1003.18 1003.41
1014.39 1014.78 1015.03 1015.13 1015.08 1014.90 1014.61 1014.25 1013.84 1013.43 1013.05 1012.73 1012.50 1012.37 1012.34 1012.40 1012.52 1012.68 1012.83 1012.93 1012.97 1012.92 1012.76 1012.52 1012.20 1011.82 1011.42 1011.00 1010.58 1010.15 1009.70 1009.20 1008.63 1007.97 1007.23 1006.41 1005.55 1004.68 1003.87 1003.18 1002.66 1002.35 1002.27 1002.41
1014.59 1014.94 1015.13 1015.13 1014.97 1014.65 1014.22 1013.71 1013.18 1012.69 1012.28 1011.98 1011.82 1011.80 1011.90 1012.11 1012.37 1012.64 1012.86 1013.01 1013.04 1012.95 1012.74 1012.43 1012.05 1011.62 1011.18 1010.74 1010.32 1009.90 1009.45 1008.96 1008.40 1007.74 1006.97 1006.11 1005.19 1004.25 1003.36 1002.57 1001.96 1001.55 1001.37 1001.42
1014.62 1014.90 1014.99 1014.89 1014.62 1014.18 1013.64 1013.04 1012.45 1011.92 1011.51 1011.25 1011.16 1011.24 1011.46 1011.77 1012.13 1012.48 1012.76 1012.92 1012.96 1012.85 1012.60 1012.25 1011.82 1011.37 1010.91 1010.47 1010.04 1009.63 1009.20 1008.72 1008.15 1007.48 1006.69 1005.80 1004.83 1003.83 1002.87 1002.01 1001.30 1000.80 1000.53 1000.50
1014.44 1014.61 1014.60 1014.40 1014.02 1013.51 1012.91 1012.27 1011.65 1011.14 1010.76 1010.55 1010.53 1010.68 1010.98 1011.36 1011.78 1012.17 1012.47 1012.65 1012.68 1012.57 1012.31 1011.95 1011.53 1011.08 1010.64 1010.21 1009.82 1009.42 1009.00 1008.53 1007.97 1007.29 1006.48 1005.56 1004.55 1003.51 1002.49 1001.56 1000.77 1000.18 999.82 999.69
1014.00 1014.05 1013.93 1013.64 1013.21 1012.66 1012.05 1011.42 1010.84 1010.37 1010.05 1009.90 1009.93 1010.13 1010.46 1010.88 1011.31 1011.70 1012.01 1012.19 1012.23 1012.12 1011.89 1011.56 1011.18 1010.78 1010.38 1010.00 1009.64 1009.28 1008.90 1008.44 1007.88 1007.20 1006.39 1005.46 1004.43 1003.36 1002.29 1001.30 1000.45 999.77 999.31 999.08
1013.28 1013.22 1013.01 1012.68 1012.22 1011.69 1011.12 1010.56 1010.06 1009.66 1009.41 1009.32 1009.40 1009.61 1009.94 1010.34 1010.75 1011.12 1011.41 1011.58 1011.63 1011.55 1011.36 1011.09 1010.78 1010.45 1010.13 1009.82 1009.52 1009.21 1008.85 1008.43 1007.90 1007.24 1006.44 1005.52 1004.50 1003.42 1002.33 1001.31 1000.40 999.64 999.08 998.74
1012.31 1012.16 1011.90 1011.55 1011.13 1010.66 1010.18 1009.72 1009.34 1009.05 1008.88 1008.85 1008.95 1009.16 1009.46 1009.81 1010.16 1010.48 1010.72 1010.88 1010.93 1010.88 1010.75 1010.56 1010.33 1010.09 1009.86 1009.63 1009.40 1009.14 1008.84 1008.46 1007.97 1007.35 1006.60 1005.72 1004.74 1003.70 1002.63 1001.60 1000.66 999.84 999.19 998.73
1011.14 1010.95 1010.68 1010.35 1010.00 1009.64 1009.29 1008.98 1008.73 1008.56 1008.48 1008.50 1008.61 1008.79 1009.04 1009.31 1009.59 1009.83 1010.02 1010.15 1010.20 1010.18 1010.11 1009.99 1009.84 1009.69 1009.54 1009.38 1009.22 1009.03 1008.78 1008.46 1008.03 1007.49 1006.82 1006.03 1005.13 1004.16 1003.16 1002.16 1001.22 1000.37 999.66 999.10
1009.88 1009.66 1009.42 1009.17 1008.92 1008.70 1008.51 1008.36 1008.25 1008.20 1008.20 1008.26 1008.37 1008.51 1008.68 1008.87 1009.05 1009.21 1009.34 1009.43 1009.47 1009.47 1009.44 1009.38 1009.31 1009.22 1009.14 1009.04 1008.93 1008.80 1008.61 1008.36 1008.01 1007.57 1007.01 1006.35 1005.58 1004.74 1003.84 1002.93 1002.03 1001.19 1000.44 999.81
1008.60 1008.41 1008.22 1008.07 1007.95 1007.88 1007.85 1007.86 1007.90 1007.95 1008.02 1008.10 1008.19 1008.28 1008.37 1008.46 1008.55 1008.62 1008.68 1008.73 1008.76 1008.77 1008.77 1008.75 1008.72 1008.68 1008.64 1008.59 1008.51 1008.42 1008.29 1008.10 1007.86 1007.53 1007.11 1006.61 1006.01 1005.33 1004.59 1003.80 1003.00 1002.21 1001.47 1000.80
Thickness
5715 5702 5694 5697 5700 5700 5696 5691 5687 5692 5703 5698 5694 5695 5702 5707 5706 5705 5703 5703 5704 5707 5711 5711 5711 5710 5708 5706 5704 5702 5700 5699 5696 5693 5691 5688 5687 5686 5687 5687 5687 5686 5685 5684
5697 5693 5703 5707 5705 5700 5694 5687 5685 5692 5700 5696 5691 5692 5701 5704 5704 5706 5705 5704 5704 5705 5706 5707 5707 5706 5705 5703 5701 5699 5698 5696 5694 5692 5690 5687 5684 5683 5683 5683 5682 5682 5681 5680
5693 5698 5709 5705 5699 5694 5690 5685 5686 5686 5692 5693 5689 5685 5693 5700 5703 5705 5705 5706 5706 5706 5705 5705 5704 5703 5702 5701 5700 5699 5696 5693 5691 5689 5686 5683 5680 5679 5677 5677 5677 5677 5677 5676
5694 5702 5704 5700 5696 5693 5684 5695 5692 5688 5678 5671 5679 5664 5682 5689 5694 5699 5700 5701 5703 5704 5705 5704 5703 5701 5701 5700 5699 5697 5694 5691 5688 5686 5683 5680 5677 5674 5674 5673 5673 5673 5672 5672
5691 5699 5698 5694 5697 5696 5692 5696 5690 5685 5675 5666 5667 5661 5670 5683 5687 5692 5696 5699 5702 5703 5703 5702 5702 5702 5701 5699 5696 5694 5691 5688 5685 5682 5680 5677 5674 5673 5671 5670 5669 5669 5668 5667
5693 5702 5702 5700 5701 5699 5694 5686 5678 5669 5662 5652 5659 5656 5660 5673 5683 5689 5694 5697 5699 5700 5700 5701 5701 5700 5697 5695 5692 5690 5687 5684 5682 5679 5676 5674 5671 5669 5667 5665 5664 5664 5663 5662
5681 5691 5699 5702 5692 5690 5685 5666 5649 5647 5640 5644 5658 5655 5661 5681 5686 5688 5690 5693 5696 5696 5696 5696 5696 5695 5693 5691 5689 5686 5683 5680 5678 5675 5673 5671 5669 5667 5665 5663 5662 5660 5659 5658
5665 5667 5687 5694 5689 5680 5676 5665 5645 5637 5634 5640 5651 5650 5668 5684 5686 5687 5688 5690 5691 5691 5691 5692 5692 5692 5690 5688 5685 5682 5680 5677 5675 5673 5671 5669 5667 5664 5663 5662 5660 5658 5658 5657
5660 5664 5686 5692 5692 5684 5670 5660 5661 5644 5639 5635 5641 5652 5668 5682 5681 5682 5683 5684 5685 5686 5687 5687 5688 5687 5686 5684 5681 5679 5677 5675 5672 5670 5668 5666 5664 5662 5661 5659 5658 5656 5655 5654
5667 5661 5674 5683 5687 5681 5675 5661 5648 5640 5631 5628 5637 5644 5651 5665 5670 5673 5675 5676 5680 5682 5683 5683 5682 5682 5681 5680 5678 5675 5673 5672 5670 5667 5665 5664 5662 5660 5658 5656 5654 5653 5652 5651
5667 5657 5661 5669 5667 5663 5661 5655 5644 5634 5632 5624 5625 5638 5661 5661 5663 5665 5668 5671 5673 5676 5677 5677 5677 5677 5676 5674 5672 5669 5668 5666 5664 5663 5661 5659 5658 5656 5654 5652 5651 5650 5649 5647
5659 5648 5644 5656 5666 5669 5664 5655 5642 5633 5627 5623 5621 5634 5661 5658 5659 5660 5661 5664 5667 5669 5670 5670 5670 5669 5668 5667 5665 5663 5663 5661 5660 5659 5657 5655 5653 5651 5649 5648 5647 5646 5644 5643
5656 5644 5634 5640 5646 5654 5653 5650 5644 5634 5622 5615 5617 5633 5655 5653 5653 5654 5654 5656 5659 5661 5662 5662 5662 5661 5660 5659 5658 5657 5656 5655 5654 5653 5651 5649 5647 5645 5644 5643 5642 5640 5639 5637
5656 5639 5634 5631 5635 5641 5642 5644 5641 5632 5619 5615 5621 5632 5643 5644 5645 5646 5647 5648 5650 5652 5653 5653 5653 5653 5652 5652 5651 5650 5649 5649 5648 5646 5644 5643 5641 5641 5640 5638 5636 5635 5633 5632
5648 5635 5636 5637 5641 5641 5639 5639 5637 5632 5629 5622 5627 5628 5636 5638 5638 5639 5640 5641 5642 5643 5645 5645 5644 5644 5644 5644 5643 5643 5642 5642 5641 5639 5638 5637 5636 5634 5633 5632 5631 5629 5627 5626
5635 5631 5630 5630 5635 5633 5631 5633 5631 5630 5629 5625 5625 5625 5634 5633 5631 5631 5631 5632 5633 5634 5636 5637 5637 5637 5636 5636 5635 5635 5635 5635 5634 5632 5631 5630 5629 5627 5626 5625 5624 5622 5620 5619
5624 5621 5617 5614 5622 5625 5619 5626 5626 5625 5626 5625 5619 5623 5625 5624 5624 5624 5624 5624 5626 5626 5628 5628 5628 5628 5629 5629 5629 5628 5627 5626 5625 5625 5624 5622 5621 5620 5619 5618 5616 5615 5613 5611
5619 5612 5604 5603 5611 5607 5620 5628 5627 5623 5622 5620 5619 5618 5618 5617 5617 5618 5618 5617 5618 5620 5620 5620 5620 5620 5621 5621 5622 5621 5620 5619 5618 5616 5615 5614 5613 5612 5611 5610 5608 5607 5606 5604
5616 5609 5598 5593 5596 5603 5616 5620 5618 5615 5614 5614 5613 5612 5611 5610 5610 5609 5612 5612 5611 5612 5613 5613 5613 5613 5613 5614 5613 5613 5612 5611 5609 5608 5607 5606 5605 5604 5603 5601 5600 5599 5598 5597
5608 5605 5595 5589 5593 5596 5611 5617 5619 5616 5606 5610 5608 5605 5602 5601 5595 5599 5604 5603 5604 5604 5605 5605 5605 5605 5605 5605 5605 5604 5603 5602 5601 5600 5598 5597 5597 5596 5594 5593 5592 5591 5590 5589
5598 5593 5588 5585 5586 5594 5606 5610 5612 5598 5598 5604 5602 5599 5596 5593 5592 5594 5596 5596 5596 5596 5597 5597 5596 5596 5596 5596 5596 5594 5594 5593 5593 5591 5590 5589 5588 5587 5586 5584 5583 5582 5581 5581
5591 5587 5583 5579 5580 5589 5601 5600 5596 5596 5598 5598 5596 5593 5591 5590 5590 5589 5588 5588 5587 5587 5588 5588 5587 5586 5587 5587 5586 5585 5584 5585 5584 5582 5581 5579 5578 5578 5577 5575 5574 5573 5572 5571
5585 5587 5584 5584 5587 5592 5593 5593 5594 5593 5590 5590 5589 5588 5586 5584 5582 5581 5580 5579 5579 5579 5579 5578 5577 5577 5576 5576 5576 5575 5575 5575 5574 5573 5571 5569 5569 5567 5566 5564 5563 5562 5561 5561
5580 5581 5578 5577 5583 5586 5586 5587 5587 5586 5585 5584 5583 5582 5580 5577 5576 5574 5572 5571 5570 5570 5569 5569 5568 5567 5566 5566 5566 5565 5565 5564 5564 5563 5561 5560 5558 5557 5555 5554 5553 5552 5551 5551
5574 5572 5569 5570 5575 5577 5580 5579 5579 5579 5577 5576 5576 5574 5572 5570 5568 5566 5565 5564 5562 5562 5560 5559 5557 5556 5556 5556 5557 5557 5555 5554 5552 5552 5551 5549 5548 5546 5545 5543 5542 5542 5542 5542
5564 5565 5564 5567 5571 5567 5571 5574 5572 5570 5569 5568 5567 5565 5564 5563 5561 5559 5557 5556 5554 5552 5551 5550 5548 5547 5547 5546 5546 5546 5545 5543 5542 5540 5539 5538 5536 5535 5534 5532 5532 5532 5532 5533